Volver al catálogo

STARLINK-5885

ActivoComunicacionesSSO
NORAD 56352·PAYLOAD·🇺🇸 United States

Lanzado Apr 27, 2023 desde Vandenberg Space Force Base

Loading…

Próximos Pases (próximas 24 horas)

TLE

ActualizadoSource: CelesTrak SupGP

Época: Sep 15, 2026, 03:11 UTC

1 56352C 23058AM  26258.13312500  .00640500  00000+0  35861-1 0  2583
2 56352  97.2852 252.2341 0001528  85.6763 155.8513 15.13196608    15

Sigue STARLINK-5885 en tiempo real con AllMySat

Download on the App Store